Regional Weather Roundup
Issued by NWS

Home | Current Version | Previous Version | Graphics & Text | Print | Product List | Glossary On
Versions: 1 2 3 4 5 6 7 8 9 10 11 12 13 14 15 16 17 18 19 20 21 22 23 24 25 26 27 28 29 30 31 32 33 34 35 36 37 38 39 40 41 42 43 44 45 46 47 48 49 50
000
ASUS43 KLOT 200410
RWRIL

ILLINOIS REGIONAL WEATHER ROUNDUP
NATIONAL WEATHER SERVICE CHICAGO/ROMEOVILLE IL
1100 PM CDT FRI SEP 19 2014

NOTE: "FAIR" INDICATES FEW OR NO CLOUDS BELOW 12,000 FEET WITH NO
SIGNIFICANT WEATHER AND/OR OBSTRUCTIONS TO VISIBILITY.

* THESE STATIONS ARE NOT UNDER NWS QUALITY CONTROL. THEY ALSO MAY NOT
  REPORT WEATHER SUCH AS PRECIPITATION OR FOG.

ILZ001-002-007-009-015-016-024-200500-
NORTHWEST ILLINOIS

CITY           SKY/WX    TMP DP  RH WIND       PRES   REMARKS
MOLINE         CLEAR     67  55  65 S14       29.92S
STERLING*      CLEAR     64  54  68 SW3       29.93S
SAVANNA*       CLEAR     64  54  71 S5        29.91R
$$

ILZ003-004-008-010-011-017-018-200500-
NORTH CENTRAL ILLINOIS

CITY           SKY/WX    TMP DP  RH WIND       PRES   REMARKS
ROCKFORD       CLEAR     64  51  62 S14       29.93F
FREEPORT*      CLEAR     64  56  75 SW12G18   29.94R
ROCHELLE*      CLEAR     60  51  70 S8        29.94S
DE KALB*       CLEAR     57  49  74 S13       29.95F
PERU*          CLEAR     62  52  70 S12       29.97F
$$

ILZ005-006-012>014-019>023-200500-
NORTHEAST ILLINOIS

CITY           SKY/WX    TMP DP  RH WIND       PRES   REMARKS
CHICAGO-OHARE  PTCLDY    66  47  50 S14       29.95S
CHICAGO-MIDWAY PTCLDY    68  49  50 S14       29.96F
AURORA         CLEAR     60  49  66 S9        29.95F
LANSING*       CLEAR     60  50  68 S13       29.99F
JOLIET*        CLEAR     62  48  62 S7        29.99S
WAUKEGAN       CLEAR     64  47  53 S14       29.92F
DUPAGE AIRPORT CLEAR     63  49  60 S14       29.95F
KANKAKEE*      CLEAR     59  51  77 S9        30.01F
WHEELING       CLEAR     66  47  50 S13       29.95F
MORRIS*        CLEAR     60  52  74 S7        29.98S
ROMEOVILLE*    CLEAR     61  49  65 S12       29.98S
NORTHERLY ISL    N/A     67  46  47 S18         N/A
$$

LMZ740>746-200500-
SOUTHERN LAKE MICHIGAN

STATION/POSITION SKY/WX   TEMP    WIND        PRES    VSBY  WAVE
                          AIR SEA DIR/SP/G                  HT/PER
                          (F)     (DEG/KT/KT) (MB)    (MI)  (FT/S)
SOUTHERN BUOY              67 63  180/ 21/ 23 1013.4F         3/ 4
WAUKEGAN HARBOR            67     200/ 18/ 23   N/A
HARRISON CRIB              66     180/ 22/ 26   N/A
BURNHAM HARBOR             67     170/ 13/ 16   N/A
CALUMET HARBOR             65     180/ 10/ 15 1013.7S
MICHIGAN CITY              64     150/ 15/ 20   N/A
MICHIGAN CITY 6N           63 65  170/ 16/ 19   N/A           2/ 2
ST. JOSEPH                 64 65  160/ 17/ 21   N/A           2/ 2
$$

ILZ025>027-034>036-040-047-049-050-058-095>099-200500-
WEST-CENTRAL ILLINOIS

CITY           SKY/WX    TMP DP  RH WIND       PRES   REMARKS
QUINCY         CLEAR     65  58  78 S8        29.98S
GALESBURG*     CLEAR     61  57  86 S7        29.96S
MACOMB*        CLEAR     62  57  85 S6        29.99S
JACKSONVILLE*  CLEAR     67  59  76 S7        30.01S
PITTSFIELD*    CLEAR     61  57  87 CALM      30.01S
$$

ILZ028>032-037-038-041>044-048-051>054-059>061-200500-
CENTRAL ILLINOIS

CITY           SKY/WX    TMP DP  RH WIND       PRES   REMARKS
PONTIAC        CLEAR     61  52  72 S8        29.99F
DECATUR        CLEAR     58  53  84 S3        30.04S
PEORIA         CLEAR     65  54  67 S12       29.98S
LACON*         CLEAR     61  53  73 S6        29.97F
LINCOLN*       CLEAR     59  54  83 CALM      29.99F
SPRINGFIELD    CLEAR     65  55  70 S7        30.01S
TAYLORVILLE    CLEAR     59  54  82 SE7       30.02F
$$

ILZ033-039-045-046-055>057-062-063-200500-
EAST-CENTRAL ILLINOIS

CITY           SKY/WX    TMP DP  RH WIND       PRES   REMARKS
CHAMPAIGN      CLEAR     60  52  74 SE8       30.04F
DANVILLE*      CLEAR     54  51  87 CALM      30.02F
RANTOUL*       CLEAR     56  50  79 CALM      30.05S
MATTOON        CLEAR     58  52  80 SE6       30.04S
PARIS*         CLEAR     50  50  99 CALM      30.06S
$$

ILZ079-100>102-200500-
SOUTHWEST ILLINOIS

CITY           SKY/WX    TMP DP  RH WIND       PRES   REMARKS
ALTON          CLEAR     60  57  88 SE6       30.02S
BELLEVILLE     CLEAR     61  61 100 CALM      30.02S FOG
CAHOKIA*       CLEAR     63  59  87 S3        30.02S
SPARTA*        CLEAR     58  56  95 CALM      30.04S
$$

ILZ064>066-069>071-074>076-080>082-084>086-088>090-092>094-200500-
SOUTH-CENTRAL ILLINOIS

CITY           SKY/WX    TMP DP  RH WIND       PRES   REMARKS
CARBONDALE     CLEAR     58  56  93 CALM      30.04S
CAIRO*         FOG       63  60  91 CALM      30.05R VSB 1/4
EFFINGHAM*     CLEAR     56  54  91 CALM      30.05S
MARION         CLEAR     61  59  94 CALM      30.05R
MT. VERNON     CLEAR     55  50  82 CALM      30.05S
CENTRALIA*     CLEAR     56  54  92 CALM      30.04S FOG
SALEM*         CLEAR     63  59  87 SE5       30.05S
METROPOLIS*    CLEAR     60  60 100 CALM      30.04R
$$

ILZ067-068-072-073-078-083-087-091-200500-
SOUTHEAST ILLINOIS

CITY           SKY/WX    TMP DP  RH WIND       PRES   REMARKS
LAWRENCEVILLE  CLEAR     57  55  93 NE3       30.06R
FLORA*         CLEAR     56  55  97 CALM      30.05S
FAIRFIELD*     CLEAR    N/A N/A N/A CALM      30.05R
HARRISBURG*    CLEAR     59  59 100 CALM      30.06R
ROBINSON*      CLEAR     54  54  97 CALM      30.06S
CARMI*         CLEAR     58  58  98 CALM      30.04S
$$

ABBREVIATIONS USED IN REMARKS
   TC - TEMPERATURE IN CELSIUS
  WCI - WIND CHILL INDEX
   HX - HEAT INDEX
  VSB - VISIBILITY
$$



USA.gov is the U.S. government's official web portal to all federal, state and local government web resources and services.